Location: General Nathan Twining Observatory
(34.5931°N, 106.8201°W)
Time: 09:12:42
(UTC-06:00)

ADEOS II - Visible Passes

Search period start: 01 July 2015 00:00
Search period end: 11 July 2015 00:00
Orbit: 801 x 802 km, 98.3° (Epoch: 01 July)

Date Brightness Start Highest point End Pass type
(mag) Time Alt. Az. Time Alt. Az. Time Alt. Az.
03 Jul 4.6 05:26:22 10° NE 05:30:12 21° E 05:34:11 10° SE visible
04 Jul 5.1 05:02:32 10° ENE 05:03:37 11° E 05:05:06 10° ESE visible
07 Jul 4.7 05:21:28 10° NE 05:25:01 19° E 05:28:45 10° SE visible
